When you browse on this site, cookies collect data to enhance your experience and personalize the content and advertising you see.
Visit our Privacy Policy to learn more. By continuing to use the site, you agree to this use of cookies and data.
  • In Österreich
  • Länderverzeichnis
  • Für 7 Tage
  • Wassertemperatur
  • Satellitenkarten
  • Wetterkarte
  • News
  • Widgets
  • user-avatar
    Anmelden

    Stündliche Wetter Kuiaba

    Heute, 12 Dezember, Mittwoch

    Zeit Temperatur Niederschläge Wind Luftdruck Luftfeuchtigkeit
    00:00 +27°C° 0 mm 2 m/S 741 mmHg 71%
    01:00 +27°C° 0 mm 2 m/S 741 mmHg 72%
    02:00 +26°C° 0 mm 2 m/S 741 mmHg 74%
    03:00 +26°C° 0 mm 2 m/S 741 mmHg 75%
    04:00 +26°C° 0 mm 2 m/S 741 mmHg 76%
    05:00 +25°C° 0 mm 2 m/S 741 mmHg 77%
    06:00 +27°C° 0 mm 2 m/S 742 mmHg 72%
    07:00 +29°C° 0 mm 3 m/S 742 mmHg 66%
    08:00 +31°C° 0 mm 3 m/S 743 mmHg 59%
    09:00 +34°C° 0.4 mm 3 m/S 743 mmHg 55%
    10:00 +35°C° 0.4 mm 3 m/S 742 mmHg 50%
    11:00 +37°C° 0.4 mm 2 m/S 742 mmHg 45%
    12:00 +37°C° 0 mm 2 m/S 741 mmHg 45%
    13:00 +37°C° 0 mm 2 m/S 741 mmHg 44%
    14:00 +37°C° 0 mm 2 m/S 740 mmHg 43%
    15:00 +36°C° 0 mm 1 m/S 740 mmHg 46%
    16:00 +35°C° 0 mm 1 m/S 739 mmHg 49%
    17:00 +34°C° 0 mm 1 m/S 739 mmHg 52%
    18:00 +33°C° 0 mm 1 m/S 739 mmHg 55%
    19:00 +31°C° 0 mm 1 m/S 739 mmHg 58%
    20:00 +30°C° 0 mm 1 m/S 740 mmHg 60%
    21:00 +29°C° 0.5 mm 1 m/S 740 mmHg 67%
    22:00 +28°C° 0.5 mm 2 m/S 740 mmHg 73%
    23:00 +26°C° 0.5 mm 2 m/S 740 mmHg 79%

    Morgen, 13 Dezember, Donnerstag

    Zeit Temperatur Niederschläge Wind Luftdruck Luftfeuchtigkeit
    00:00 +26°C° 0 mm 2 m/S 740 mmHg 80%
    01:00 +26°C° 0 mm 2 m/S 740 mmHg 81%
    02:00 +26°C° 0 mm 2 m/S 740 mmHg 81%
    03:00 +25°C° 0 mm 1 m/S 740 mmHg 82%
    04:00 +25°C° 0 mm 1 m/S 740 mmHg 82%
    05:00 +25°C° 0 mm 1 m/S 740 mmHg 83%
    06:00 +27°C° 0 mm 1 m/S 741 mmHg 75%
    07:00 +29°C° 0 mm 2 m/S 741 mmHg 68%
    08:00 +31°C° 0 mm 2 m/S 742 mmHg 61%
    09:00 +34°C° 0.2 mm 2 m/S 741 mmHg 55%
    10:00 +35°C° 0.2 mm 2 m/S 741 mmHg 49%
    11:00 +37°C° 0.2 mm 3 m/S 741 mmHg 43%
    12:00 +37°C° 0 mm 2 m/S 740 mmHg 42%
    13:00 +38°C° 0 mm 2 m/S 739 mmHg 41%
    14:00 +37°C° 0 mm 1 m/S 738 mmHg 39%
    15:00 +36°C° 0 mm 1 m/S 738 mmHg 43%
    16:00 +35°C° 0 mm 1 m/S 737 mmHg 47%
    17:00 +34°C° 0 mm 1 m/S 737 mmHg 51%
    18:00 +33°C° 0 mm 1 m/S 737 mmHg 53%
    19:00 +32°C° 0 mm 1 m/S 738 mmHg 55%
    20:00 +30°C° 0 mm 2 m/S 738 mmHg 58%
    21:00 +29°C° 0.3 mm 2 m/S 738 mmHg 63%
    22:00 +28°C° 0.3 mm 2 m/S 739 mmHg 68%
    23:00 +27°C° 0.3 mm 3 m/S 739 mmHg 74%

    übermorgen, 14 Dezember, Freitag

    Zeit Temperatur Niederschläge Wind Luftdruck Luftfeuchtigkeit
    00:00 +27°C° 0.1 mm 2 m/S 739 mmHg 76%
    01:00 +26°C° 0.1 mm 2 m/S 738 mmHg 79%
    02:00 +26°C° 0.1 mm 2 m/S 738 mmHg 82%
    03:00 +26°C° 0 mm 2 m/S 738 mmHg 83%
    04:00 +25°C° 0 mm 2 m/S 739 mmHg 84%
    05:00 +25°C° 0 mm 2 m/S 739 mmHg 85%
    06:00 +27°C° 0 mm 2 m/S 740 mmHg 77%
    07:00 +29°C° 0 mm 3 m/S 740 mmHg 70%
    08:00 +31°C° 0 mm 3 m/S 741 mmHg 63%
    09:00 +34°C° 0.3 mm 3 m/S 741 mmHg 57%
    10:00 +35°C° 0.3 mm 3 m/S 741 mmHg 51%
    11:00 +37°C° 0.3 mm 4 m/S 741 mmHg 45%
    12:00 +37°C° 0 mm 3 m/S 740 mmHg 45%
    13:00 +37°C° 0 mm 3 m/S 739 mmHg 44%
    14:00 +37°C° 0 mm 3 m/S 738 mmHg 44%
    15:00 +36°C° 0 mm 2 m/S 738 mmHg 46%
    16:00 +36°C° 0 mm 2 m/S 738 mmHg 49%
    17:00 +35°C° 0 mm 2 m/S 738 mmHg 51%
    18:00 +34°C° 0 mm 2 m/S 739 mmHg 55%
    19:00 +31°C° 0 mm 2 m/S 739 mmHg 59%
    20:00 +30°C° 0 mm 2 m/S 740 mmHg 63%
    21:00 +29°C° 0.1 mm 2 m/S 740 mmHg 68%
    22:00 +28°C° 0.1 mm 2 m/S 741 mmHg 72%
    23:00 +27°C° 0.1 mm 2 m/S 741 mmHg 77%

    15 Dezember, Samstag

    Zeit Temperatur Niederschläge Wind Luftdruck Luftfeuchtigkeit
    00:00 +27°C° 0 mm 2 m/S 741 mmHg 78%
    01:00 +26°C° 0 mm 2 m/S 740 mmHg 79%
    02:00 +26°C° 0 mm 2 m/S 740 mmHg 81%
    03:00 +26°C° 0 mm 2 m/S 740 mmHg 82%
    04:00 +25°C° 0 mm 1 m/S 740 mmHg 83%
    05:00 +25°C° 0 mm 1 m/S 740 mmHg 83%
    06:00 +27°C° 0 mm 2 m/S 741 mmHg 76%
    07:00 +29°C° 0 mm 2 m/S 742 mmHg 69%
    08:00 +31°C° 0 mm 2 m/S 743 mmHg 62%
    09:00 +34°C° 0.2 mm 2 m/S 742 mmHg 56%
    10:00 +36°C° 0.2 mm 3 m/S 742 mmHg 49%
    11:00 +37°C° 0.2 mm 3 m/S 742 mmHg 43%
    12:00 +37°C° 0.2 mm 2 m/S 741 mmHg 43%
    13:00 +37°C° 0.2 mm 2 m/S 741 mmHg 43%
    14:00 +37°C° 0.2 mm 2 m/S 740 mmHg 43%
    15:00 +35°C° 0 mm 1 m/S 740 mmHg 46%
    16:00 +35°C° 0 mm 1 m/S 739 mmHg 49%
    17:00 +34°C° 0 mm 1 m/S 739 mmHg 52%
    18:00 +33°C° 0 mm 1 m/S 739 mmHg 55%
    19:00 +31°C° 0 mm 2 m/S 740 mmHg 58%
    20:00 +30°C° 0 mm 2 m/S 740 mmHg 62%
    21:00 +29°C° 0.2 mm 2 m/S 740 mmHg 66%
    22:00 +28°C° 0.2 mm 2 m/S 741 mmHg 71%
    23:00 +27°C° 0.2 mm 2 m/S 741 mmHg 75%

    16 Dezember, Sonntag

    Zeit Temperatur Niederschläge Wind Luftdruck Luftfeuchtigkeit
    00:00 +27°C° 0.1 mm 2 m/S 741 mmHg 77%
    01:00 +26°C° 0.1 mm 1 m/S 740 mmHg 78%
    02:00 +26°C° 0.1 mm 1 m/S 740 mmHg 80%
    03:00 +26°C° 0 mm 1 m/S 740 mmHg 81%
    04:00 +25°C° 0 mm 1 m/S 740 mmHg 82%
    05:00 +25°C° 0 mm 1 m/S 741 mmHg 82%
    06:00 +27°C° 0 mm 1 m/S 741 mmHg 75%
    07:00 +29°C° 0 mm 2 m/S 742 mmHg 68%
    08:00 +31°C° 0 mm 2 m/S 742 mmHg 61%
    09:00 +34°C° 0.2 mm 2 m/S 742 mmHg 55%
    10:00 +36°C° 0.2 mm 2 m/S 742 mmHg 49%
    11:00 +38°C° 0.2 mm 2 m/S 742 mmHg 43%
    12:00 +37°C° 0.1 mm 2 m/S 741 mmHg 43%
    13:00 +36°C° 0.1 mm 1 m/S 740 mmHg 43%
    14:00 +36°C° 0.1 mm 1 m/S 740 mmHg 43%
    15:00 +35°C° 0 mm 1 m/S 739 mmHg 46%
    16:00 +34°C° 0 mm 1 m/S 739 mmHg 50%
    17:00 +33°C° 0 mm 1 m/S 739 mmHg 53%
    18:00 +32°C° 0.3 mm 1 m/S 739 mmHg 58%
    19:00 +30°C° 0.3 mm 1 m/S 739 mmHg 63%
    20:00 +29°C° 0.3 mm 1 m/S 740 mmHg 68%
    21:00 +28°C° 0.2 mm 2 m/S 740 mmHg 72%
    22:00 +28°C° 0.2 mm 2 m/S 740 mmHg 75%
    23:00 +27°C° 0.2 mm 2 m/S 740 mmHg 79%

    17 Dezember, Montag

    Zeit Temperatur Niederschläge Wind Luftdruck Luftfeuchtigkeit
    00:00 +26°C° 0.1 mm 2 m/S 740 mmHg 80%
    01:00 +26°C° 0.1 mm 1 m/S 740 mmHg 81%
    02:00 +26°C° 0.1 mm 1 m/S 739 mmHg 82%
    03:00 +25°C° 0 mm 1 m/S 740 mmHg 83%
    04:00 +25°C° 0 mm 1 m/S 740 mmHg 84%
    05:00 +25°C° 0 mm 1 m/S 740 mmHg 85%
    06:00 +27°C° 0 mm 1 m/S 741 mmHg 77%
    07:00 +29°C° 0 mm 2 m/S 741 mmHg 69%
    08:00 +32°C° 0 mm 2 m/S 742 mmHg 61%
    09:00 +34°C° 0.1 mm 2 m/S 742 mmHg 54%
    10:00 +36°C° 0.1 mm 3 m/S 742 mmHg 48%
    11:00 +38°C° 0.1 mm 3 m/S 742 mmHg 41%
    12:00 +38°C° 0 mm 3 m/S 741 mmHg 41%
    13:00 +37°C° 0 mm 2 m/S 740 mmHg 41%
    14:00 +37°C° 0 mm 2 m/S 739 mmHg 42%
    15:00 +36°C° 0 mm 1 m/S 739 mmHg 44%
    16:00 +35°C° 0 mm 1 m/S 739 mmHg 45%
    17:00 +35°C° 0 mm 1 m/S 738 mmHg 47%
    18:00 +33°C° 0 mm 1 m/S 739 mmHg 50%
    19:00 +32°C° 0 mm 1 m/S 739 mmHg 53%
    20:00 +30°C° 0 mm 1 m/S 739 mmHg 57%
    21:00 +29°C° 0 mm 1 m/S 740 mmHg 58%
    22:00 +29°C° 0 mm 1 m/S 740 mmHg 59%
    23:00 +28°C° 0 mm 1 m/S 740 mmHg 61%
    Mehr zeigen